Volver al catálogo

STARLINK-30573

ActivoComunicacionesVLEO
NORAD 58058·PAYLOAD·🇺🇸 United States

Lanzado Oct 13, 2023 desde Cape Canaveral Space Force Station

Loading…

Próximos Pases (próximas 24 horas)

TLE

ActualizadoSource: CelesTrak SupGP

Época: Sep 14, 2026, 22:39 UTC

1 58058C 23158H   26257.94423611 -.00108400  00000+0 -39194-2 0  2576
2 58058  43.0019  38.1601 0001766 280.8926 125.3505 15.27689647    16

Sigue STARLINK-30573 en tiempo real con AllMySat

Download on the App Store